Home > Weather > New City > Past weeks

Flag for U.S.A. Weather for the Past 2 Weeks in New City, New York, U.S.A.

Now
13 °F

Sunny.


Feels Like: -2 °F
Forecast: 1 / 15 °F
Wind: 13 mph from Northwest

Location: Westchester County Airport

Current Time: Feb 14, 2016 at 4:17:04 PM

Latest Report: Feb 14, 2016 at 3:56 PM


Visibility: 10 mi

Pressure: 30.48 "Hg

Humidity: 30%

Dew point: -13 °F

Location of New CityLocation

Historic Weather in New City — Graph

°F

New City Temperature Yesterday

Maximum temperature yesterday: 20 °F (at 12:56 AM)
Minimum temperature yesterday: 3 °F (at 7:56 PM)
Average temperature yesterday: 13 °F

High & Low Weather Summary for the Past Weeks

 TemperatureHumidityPressure
High57 °F (Feb 1, 11:56 AM)97% (Feb 3, 6:56 PM)30.53 "Hg (Feb 3, 6:56 PM)
Low-3 °F (Feb 14, 6:56 AM)30% (Jan 31, 2:56 PM)29.57 "Hg (Feb 9, 1:56 PM)
Average32 °F61%30.00 "Hg
* Reported Jan 30 2:56 PM — Feb 14 2:56 PM, New City, Weather by CustomWeather, © 2016

Note: Actual official high and low records may vary slightly from our data, if they occured in-between our weather recording intervals... More about our weather records

Advertising

New City Weather History for the Previous 24 Hours

 ConditionsComfort  
Time TempWeatherWind HumidityBarometerVisibility
2:56 PM
Sun, Feb 14
12 °FSunny.12 mph31%30.48 "Hg10 mi
1:56 PM11 °FSunny.10 mph34%30.49 "Hg10 mi
12:56 PM8 °FSunny.12 mph35%30.50 "Hg10 mi
11:56 AM6 °FSunny.7 mph40%30.51 "Hg10 mi
10:56 AM3 °FSunny.13 mph42%30.53 "Hg10 mi
9:56 AM1 °FSunny.13 mph44%30.52 "Hg10 mi
8:56 AM-1 °FSunny.18 mph46%30.51 "Hg10 mi
7:56 AM-3 °FSunny.17 mph48%30.49 "Hg10 mi
6:56 AM-3 °FSunny.21 mph45%30.45 "Hg10 mi
5:56 AM-2 °FPassing clouds.15 mph48%30.42 "Hg10 mi
4:56 AM-2 °FPassing clouds.24 mph48%30.38 "Hg10 mi
3:56 AM-1 °FPassing clouds.20 mph48%30.36 "Hg10 mi
2:56 AM0 °FPassing clouds.16 mph51%30.34 "Hg10 mi
1:56 AM2 °FPassing clouds.22 mph49%30.32 "Hg10 mi
12:56 AM3 °FPassing clouds.21 mph49%30.30 "Hg10 mi
11:56 PM
Sat, Feb 13
3 °FPassing clouds.24 mph47%30.28 "Hg10 mi
10:56 PM3 °FClear.23 mph40%30.27 "Hg10 mi
9:56 PM3 °FClear.23 mph40%30.28 "Hg10 mi
8:56 PM3 °FClear.32 mph38%30.28 "Hg10 mi
7:56 PM3 °FPassing clouds.26 mph42%30.28 "Hg10 mi
6:56 PM4 °FPassing clouds.22 mph45%30.26 "Hg10 mi
5:56 PM6 °FPassing clouds.33 mph40%30.22 "Hg10 mi
4:56 PM8 °FPassing clouds.29 mph35%30.17 "Hg10 mi
Weather by CustomWeather, © 2016

See weather overviewHow to use our weather pages